Showing default

SPARK 1, 41900

Orbit data source: Space-Track

SPARK 1, 41900 is a payload satellite owned by SECM (CN) in SSO that was launched on Wed, 21 Dec 2016 UTC via a CHANG ZHENG 2D launch vehicle from the Jiuquan Satellite Launch Center, China (JSC). Payload-class satellites include a variety of spacecraft equipped with specific instruments for various scientific and technological missions. These include communications satellites like Starlink; space stations such as the ISS; scientific satellites like the Hubble; Earth observation satellites from companies like Planet Labs, Umbra, and HawkEye 360; GPS; miniature CubeSats for education and research; and military/defense satellites.

Loading next visibility...
Identifier
41900, 2016-081C
Orbit
SSO
Last TLE update
7 hours ago
Origin
Manufacturer
SECM
Mission
Operational Civil Imaging
Bus & Motor
SPARK, Unknown motor
Mass
43 kg wet, 43 kg dry
Launch date (UTC)
2016-12-21 (9 years ago)
Launch vehicle
CHANG ZHENG 2D
Launch site
Jiuquan Satellite Launch Center, China (JSC)
Object type
Payload
Rocket body
Debris
Shape & HBR
Box + 2 Pan, 1 m
Radar Cross Section
0.388 m², Medium (>0.1 m² and < 1m²)

Expand to show TLE details & history

TLE from 7 hours ago
0 SPARK 1
1 41900U 16081C   25186.86403746  .00000457  00000-0  10720-3 0  9999
2 41900  98.5152 166.4855 0022979 311.3384  48.5837 14.59184504453753
Epoch: 2025-07-05T20:44Z
TLE epoch observation values (Epoch: 2025-07-05T20:44:12.836Z)
Latitude
-0.00006°
Longitude
-68.66394°
Altitude
688.048 km
Speed
7.518 km/s
True Right ascension
11h 05m 56s
True Declination
0° 00' 00"
Sunlit
Object was in daylight at epoch
Visualization orbit readout
Latitude
-5.67693°
Longitude
110.80536°
Altitude
708.948 km
Speed
7.496 km/s
Apparent Right ascension
01h 03m 34s
Apparent Declination
-26° 36' 20"
Sunlit
Object is in full shadow
Visualization observer readout
Local Sidereal Time
16:07:18
Azimuth
85.059° E
Elevation
-49.847°
Doppler factor
1
Orbital elements
Apogee altitude
709.154 km
Perigee altitude
676.657 km
Semi-major axis
7,071.042 km
Eccentricity
0.0023
Inclination
98.5152°
RAAN
166.4855°
Arg. of periapsis
311.3384°
True anomaly
Unknown
Mean anomaly
48.5837°
Eccentric anomaly
Unknown
Mean motion
3.65021 °/min
Orbital period
98.62 mins
BSTAR
0.0001072
Loading maneuver chart data...
Loading SW <> Apogee altitude chart data...
Loading historical data...
Loading historical data...
Loading historical data...
Loading historical data...
Loading historical data...
Loading historical data...
Loading historical data...
Other satellites on launch #81 in the year 2016 (2016-12-21 UTC)

SPARK 1 Visibility forecast

Observer location: undefined°, undefined°

Span
Click to sort rows by Start time (UTC) header in descending order
Start Az.
Max El. time (UTC)
Max El. Az.
Max El.
End time (UTC)
End Az.
6 mins2025-07-06 10:30:10.289Z53.303° ENE2025-07-06 10:33:10.289Z96.427° ESE18.351°2025-07-06 10:36:10.289Z137.325° SSE
7 mins2025-07-06 12:08:10.289Z346.836° N2025-07-06 12:11:10.289Z273.984° WNW33.493°2025-07-06 12:15:10.289Z219.271° SW
5 mins2025-07-06 21:35:10.289Z102.03° ESE2025-07-06 21:37:10.289Z71.671° E19.45°2025-07-06 21:40:10.289Z25.427° NE
7 mins2025-07-06 23:12:10.289Z203.692° SW2025-07-06 23:15:10.289Z273.382° WNW32.349°2025-07-06 23:19:10.289Z330.946° NNW
|